Wind_Speed
9 9 9 9 9 8 8 7 6 6 5 5 4 4 4 4 3 3 2 2 2 2 2 2 3 3 4 4 4 5 6 6 5 6 6 6 6 6 7 7 7 7 7
9 9 9 8 8 8 7 7 6 5 5 5 5 5 4 4 4 4 3 3 3 2 2 3 3 4 4 4 4 4 5 5 5 5 5 6 7 7 7 6 6 6 6
9 9 9 8 8 8 8 7 6 5 5 5 5 5 5 5 5 5 4 4 3 3 3 3 3 4 4 4 4 5 5 5 5 6 5 6 6 6 6 6 6 6 5
9 9 9 8 8 8 8 7 7 6 5 5 5 5 5 5 5 5 5 5 4 3 3 3 3 4 4 4 4 4 6 5 5 5 6 5 6 6 5 5 6 6 6
10 9 9 8 8 8 7 7 7 6 5 5 5 5 5 5 6 6 5 5 4 4 4 4 3 3 4 4 5 5 5 5 5 6 6 6 6 7 6 6 6 6 7
10 9 9 8 8 8 8 8 7 6 6 6 6 5 5 5 5 5 4 4 4 4 4 4 4 3 3 4 5 5 5 6 6 7 7 6 6 6 6 6 6 6 7
10 9 9 9 9 9 8 8 8 7 6 6 6 5 5 6 5 4 4 4 4 5 5 5 5 4 4 4 5 5 6 6 6 6 6 6 6 5 6 6 6 6 6
10 10 9 9 9 8 8 8 8 8 7 6 6 5 6 6 5 4 4 4 4 4 5 5 6 6 5 5 5 5 5 6 6 6 6 6 6 6 6 6 6 6 6
10 10 10 9 9 8 8 7 7 7 7 6 6 6 6 6 5 4 4 4 4 5 5 5 6 6 6 6 5 5 6 6 6 6 6 6 6 6 6 6 7 7 6
10 10 10 9 9 9 8 8 7 7 7 7 7 7 7 6 4 4 4 4 5 5 6 6 7 7 7 7 6 6 6 6 6 7 7 8 7 6 6 7 7 7 6
10 10 9 9 9 9 8 8 7 7 7 6 6 6 6 6 5 4 5 5 6 6 6 6 7 7 7 8 8 8 7 7 7 7 8 8 8 8 7 8 8 8 7
11 10 10 9 10 10 9 8 8 7 7 6 6 7 6 6 5 5 6 6 7 7 7 7 8 8 8 8 9 9 9 8 8 9 8 9 9 9 9 9 8 8 8
11 11 11 10 10 11 10 9 8 8 7 6 6 6 6 5 5 6 6 7 7 8 8 9 9 9 9 9 10 10 10 10 10 10 10 10 10 10 10 10 9 9 9
11 11 10 9 10 9 9 8 7 7 8 7 7 7 6 6 6 7 7 8 9 9 9 9 10 10 10 11 11 11 11 11 11 11 11 11 11 11 11 11 10 10 10
12 11 11 11 11 10 9 9 8 8 7 8 8 8 7 7 7 7 7 8 9 9 10 11 11 11 12 12 12 12 12 12 12 11 12 12 12 12 13 13 12 11 12
12 12 12 11 11 10 9 9 9 9 9 8 8 9 9 8 8 8 9 9 9 9 10 11 12 12 12 12 12 13 12 12 12 12 12 13 13 13 13 13 13 13 13
15 14 12 12 12 11 10 10 10 10 10 10 9 10 10 9 9 9 9 9 9 9 9 10 11 12 13 13 13 13 13 13 13 13 13 13 13 13 14 15 15 15 15
15 15 14 13 13 13 12 11 11 11 11 10 10 11 11 10 10 10 10 10 10 10 10 11 11 12 12 13 14 14 14 14 14 13 14 14 14 14 14 15 16 16 16
16 16 16 15 15 14 14 13 13 13 13 12 12 13 12 12 12 12 12 12 11 11 12 12 12 12 13 13 14 14 15 15 15 15 15 15 15 15 15 15 16 17 17
17 17 16 16 16 16 15 15 14 14 14 14 14 14 14 13 14 14 13 13 13 13 13 13 14 14 14 14 14 15 16 16 16 16 16 16 16 16 16 16 17 17 18
18 18 17 17 17 17 16 16 15 14 14 14 14 15 15 14 15 15 15 15 15 15 15 15 15 16 15 15 15 15 16 16 16 15 16 16 17 17 18 18 18 19 19
19 19 19 18 18 18 17 18 17 17 16 15 16 16 16 16 16 16 16 17 17 17 17 16 16 16 16 16 15 15 15 16 16 16 16 17 17 17 18 19 20 20 20
20 19 19 19 19 20 19 18 18 17 18 18 17 18 18 18 18 17 17 18 18 19 18 18 17 17 17 16 16 15 15 15 16 16 17 17 18 18 18 18 19 20 21
20 19 19 20 21 21 21 19 19 19 19 18 18 18 18 19 18 18 18 18 19 19 19 19 19 18 17 17 17 16 17 17 16 16 17 17 18 19 19 20 21 22 22
20 20 20 20 21 21 21 20 19 19 19 18 19 18 18 18 18 18 19 19 19 19 20 20 20 20 20 20 19 19 19 19 19 18 18 18 18 19 20 21 22 22 23
21 21 20 19 20 20 20 20 18 19 19 19 18 18 18 17 18 19 19 19 19 20 20 20 21 21 21 21 21 21 21 21 21 21 20 20 20 20 21 22 23 23 24
Wind_Direction
356 357 355 352 353 353 348 345 340 341 335 326 321 307 300 292 285 281 283 279 275 278 240 226 229 224 212 208 202 195 190 188 186 186 187 187 187 185 186 190 195 194 196
347 351 350 349 350 350 347 345 340 337 334 325 319 310 298 290 282 278 272 270 277 267 253 241 234 228 233 236 226 206 198 195 193 193 189 188 192 191 193 197 200 200 205
343 344 346 346 346 346 343 340 338 334 332 327 318 313 299 292 286 275 267 261 267 260 254 240 242 238 236 238 231 218 203 201 200 197 196 198 202 204 203 205 201 199 200
340 340 340 342 344 345 341 337 336 330 325 319 313 308 300 290 283 277 269 254 253 252 248 240 246 239 238 239 238 221 211 208 202 204 202 204 206 205 205 211 212 214 212
337 336 337 338 340 341 339 335 334 332 326 316 308 303 301 290 285 286 273 254 249 247 244 245 242 242 242 245 244 233 217 214 215 210 205 204 206 209 215 223 220 217 211
332 330 332 335 337 335 333 333 331 329 322 318 312 304 303 293 288 293 280 261 256 253 251 247 246 248 247 247 246 236 225 217 212 213 210 204 207 208 217 225 221 216 212
332 330 329 331 329 329 327 324 325 325 321 316 315 309 306 296 287 272 273 265 260 256 253 252 246 249 252 253 249 239 234 231 224 219 214 218 219 217 218 222 225 226 228
330 328 325 323 321 322 324 320 318 319 319 313 309 308 306 299 284 271 267 266 265 264 260 259 250 249 252 254 252 251 250 243 231 227 228 225 224 228 221 220 227 230 234
328 327 323 318 318 317 315 314 312 313 315 310 302 300 298 296 288 272 266 266 266 269 265 260 255 252 252 253 255 256 256 245 246 248 237 233 230 229 225 223 229 235 232
328 325 325 322 318 317 310 305 306 308 310 309 303 296 294 293 290 274 270 267 267 269 266 259 255 255 255 256 255 259 258 257 251 251 247 244 238 232 236 232 233 232 226
325 322 320 322 319 316 311 301 302 302 301 303 305 297 289 289 286 275 272 268 267 267 268 261 256 259 260 259 257 261 262 265 259 255 248 247 246 242 242 239 236 233 227
325 322 320 319 317 313 309 298 296 295 297 299 300 296 288 285 276 278 268 269 269 270 269 264 262 264 267 266 262 261 264 265 264 260 253 250 247 248 249 244 238 238 235
322 320 319 318 321 318 306 295 292 292 294 295 298 294 288 289 279 271 275 266 267 271 269 263 266 265 267 269 269 265 263 260 261 260 254 248 245 247 250 249 246 245 242
319 320 319 320 323 321 315 302 291 289 291 290 294 297 294 294 290 278 273 272 271 271 270 270 272 271 267 267 269 268 263 261 259 259 254 249 247 249 251 253 252 248 246
312 316 317 317 319 316 310 304 295 294 291 287 286 289 288 285 284 282 279 277 277 276 272 272 273 272 269 268 269 266 263 257 255 256 257 254 254 256 253 251 252 252 251
308 309 313 312 313 308 305 299 292 286 282 282 283 286 287 285 284 285 284 279 278 278 278 273 271 272 270 269 268 264 261 259 257 258 259 258 258 259 255 252 254 257 253
304 304 305 304 306 300 296 294 289 283 281 279 279 283 284 286 287 285 282 279 279 279 279 279 278 275 273 268 267 263 261 261 261 260 259 259 260 261 258 254 252 255 255
302 303 301 300 298 296 291 288 286 282 275 276 276 278 280 281 282 283 282 281 279 280 281 283 282 280 278 272 266 264 261 258 260 260 260 260 260 260 259 256 253 251 254
302 302 300 298 295 293 290 285 285 282 276 273 272 273 275 276 278 279 278 281 281 280 282 284 283 280 278 274 268 264 262 260 259 260 260 261 260 259 259 260 256 253 256
301 302 301 296 292 290 290 288 288 280 275 274 271 271 274 273 275 276 275 277 280 280 281 282 282 282 281 277 272 268 263 261 260 262 259 262 261 261 261 260 259 257 256
300 301 300 297 290 288 289 286 284 278 274 271 269 269 271 271 272 271 272 273 277 278 279 280 281 280 279 277 275 273 267 262 262 261 261 263 265 265 263 261 261 262 260
296 297 297 296 292 287 286 284 280 278 277 272 267 267 268 268 270 269 269 271 273 275 277 280 281 281 279 277 274 272 270 266 263 262 263 264 265 266 265 263 263 263 262
294 295 294 294 293 292 286 285 280 278 278 274 269 267 268 268 268 268 269 270 271 274 276 278 279 279 276 274 273 272 270 266 264 264 265 265 265 264 265 266 266 263 262
295 293 291 290 290 290 289 286 285 280 279 274 271 270 268 267 267 268 269 269 271 272 274 276 275 274 275 274 272 271 270 270 266 266 266 267 268 266 267 268 268 266 266
293 292 290 289 287 288 289 287 282 279 277 274 273 271 270 266 265 268 269 270 271 271 274 274 273 274 275 275 272 271 272 272 269 268 267 267 268 269 270 270 269 266 265
290 290 289 291 289 287 286 284 282 280 279 275 271 271 270 267 267 269 270 272 272 271 273 274 274 274 274 273 272 271 270 270 269 268 266 265 266 268 270 271 270 268 265
Height
5893 5892 5891 5889 5888 5888 5887 5886 5885 5884 5883 5883 5882 5882 5881 5881 5880 5880 5880 5879 5879 5879 5879 5878 5878 5878 5878 5878 5878 5879 5879 5879 5880 5880 5881 5881 5882 5882 5883 5884 5884 5885 5885
5893 5892 5891 5889 5888 5887 5886 5886 5884 5884 5883 5882 5882 5882 5881 5881 5880 5880 5879 5879 5879 5879 5879 5878 5878 5878 5878 5878 5878 5878 5879 5879 5880 5880 5881 5881 5882 5882 5883 5883 5884 5884 5885
5892 5891 5890 5889 5888 5887 5886 5885 5884 5883 5883 5882 5881 5881 5880 5880 5879 5879 5878 5878 5878 5878 5878 5878 5878 5878 5878 5878 5878 5878 5878 5879 5880 5880 5881 5881 5881 5882 5882 5883 5883 5884 5884
5892 5891 5890 5889 5888 5887 5886 5885 5884 5883 5882 5881 5881 5880 5880 5879 5879 5878 5878 5878 5878 5878 5878 5878 5877 5877 5877 5877 5877 5877 5878 5879 5879 5880 5880 5881 5881 5881 5881 5882 5883 5883 5883
5891 5890 5889 5888 5887 5886 5885 5884 5883 5882 5882 5881 5880 5879 5879 5878 5878 5877 5877 5877 5877 5877 5877 5877 5877 5877 5877 5877 5876 5877 5877 5878 5878 5879 5879 5880 5880 5880 5881 5881 5882 5882 5882
5890 5889 5888 5887 5886 5885 5884 5884 5883 5882 5881 5880 5879 5878 5878 5877 5877 5877 5876 5876 5876 5877 5877 5876 5876 5876 5876 5876 5876 5876 5877 5877 5878 5878 5879 5879 5879 5880 5880 5880 5881 5881 5882
5890 5888 5887 5886 5885 5884 5883 5883 5882 5881 5880 5879 5878 5877 5877 5876 5876 5876 5876 5876 5876 5876 5876 5876 5876 5876 5875 5875 5875 5876 5876 5877 5877 5877 5878 5878 5879 5879 5879 5879 5880 5881 5881
5888 5887 5886 5885 5884 5883 5882 5881 5880 5880 5879 5878 5877 5876 5875 5875 5875 5875 5874 5875 5875 5875 5875 5874 5875 5875 5875 5875 5875 5875 5875 5875 5876 5876 5877 5877 5877 5878 5878 5878 5879 5880 5880
5887 5886 5885 5883 5882 5881 5881 5880 5879 5878 5877 5876 5876 5875 5874 5874 5874 5874 5874 5873 5874 5874 5874 5874 5874 5874 5874 5874 5874 5874 5874 5874 5874 5875 5875 5876 5876 5876 5877 5877 5878 5879 5879
5886 5885 5883 5882 5881 5880 5879 5878 5877 5877 5876 5875 5875 5874 5873 5873 5872 5873 5872 5872 5872 5872 5872 5872 5872 5873 5873 5873 5873 5873 5873 5873 5873 5873 5874 5874 5875 5875 5875 5876 5876 5877 5878
5884 5883 5882 5881 5879 5878 5877 5876 5876 5875 5874 5874 5873 5872 5872 5872 5871 5871 5871 5871 5871 5871 5871 5871 5871 5871 5871 5871 5871 5871 5871 5871 5872 5872 5873 5873 5873 5874 5874 5874 5875 5875 5876
5882 5881 5880 5879 5878 5876 5875 5874 5874 5873 5873 5872 5871 5871 5870 5870 5870 5870 5870 5870 5869 5869 5869 5869 5870 5869 5869 5869 5870 5870 5870 5870 5870 5870 5871 5871 5872 5872 5873 5873 5873 5874 5874
5880 5879 5878 5877 5875 5873 5872 5872 5872 5871 5871 5870 5870 5869 5869 5869 5868 5868 5868 5868 5868 5868 5867 5868 5868 5867 5867 5867 5867 5867 5868 5868 5868 5868 5868 5869 5869 5870 5871 5871 5872 5872 5872
5879 5877 5876 5875 5874 5872 5871 5870 5870 5869 5869 5868 5868 5868 5867 5867 5867 5866 5866 5866 5866 5866 5866 5865 5865 5865 5865 5865 5865 5865 5865 5865 5866 5866 5866 5866 5867 5868 5868 5869 5869 5870 5870
5876 5875 5874 5873 5871 5870 5869 5868 5868 5867 5867 5867 5866 5866 5865 5865 5865 5865 5864 5864 5863 5863 5863 5863 5863 5863 5862 5862 5862 5862 5863 5863 5863 5863 5863 5864 5865 5865 5865 5866 5867 5867 5868
5874 5873 5872 5870 5869 5868 5867 5866 5865 5865 5864 5864 5864 5864 5863 5863 5863 5862 5862 5861 5861 5861 5860 5860 5860 5860 5859 5859 5859 5859 5859 5860 5860 5860 5861 5861 5862 5862 5862 5863 5864 5864 5865
5871 5870 5869 5868 5866 5865 5864 5863 5863 5862 5862 5861 5861 5861 5861 5860 5860 5860 5859 5859 5859 5858 5857 5857 5857 5857 5856 5856 5856 5856 5856 5857 5857 5857 5858 5858 5858 5859 5859 5859 5860 5861 5861
5868 5867 5866 5865 5863 5863 5861 5860 5860 5859 5859 5859 5858 5858 5858 5857 5857 5857 5856 5856 5856 5855 5855 5854 5854 5853 5853 5853 5852 5852 5853 5853 5854 5854 5854 5854 5855 5855 5856 5856 5856 5857 5858
5864 5863 5862 5861 5860 5859 5858 5857 5856 5855 5855 5855 5855 5854 5854 5854 5854 5854 5853 5853 5853 5852 5852 5851 5851 5850 5849 5849 5849 5849 5849 5849 5850 5851 5851 5851 5851 5852 5852 5852 5853 5853 5853
5860 5859 5858 5857 5857 5856 5854 5853 5851 5851 5851 5851 5850 5851 5850 5850 5850 5850 5850 5850 5850 5849 5849 5848 5847 5846 5846 5845 5845 5845 5845 5845 5846 5846 5847 5847 5847 5847 5848 5848 5849 5849 5849
5856 5855 5854 5853 5852 5851 5850 5849 5847 5846 5846 5846 5846 5846 5846 5846 5846 5846 5846 5846 5846 5845 5845 5844 5844 5843 5842 5842 5841 5841 5841 5841 5842 5842 5842 5842 5842 5843 5843 5843 5844 5844 5845
5852 5851 5850 5849 5847 5846 5845 5844 5843 5842 5842 5842 5842 5841 5842 5842 5841 5841 5841 5841 5841 5841 5841 5840 5840 5839 5838 5838 5837 5837 5837 5838 5837 5837 5837 5838 5838 5838 5838 5838 5839 5839 5840
5848 5847 5845 5844 5843 5841 5839 5838 5838 5837 5837 5837 5837 5837 5837 5837 5837 5836 5836 5837 5837 5836 5836 5836 5835 5835 5834 5834 5833 5833 5833 5833 5833 5833 5833 5833 5833 5833 5833 5833 5834 5834 5834
5844 5842 5841 5839 5838 5836 5834 5833 5832 5832 5832 5832 5832 5832 5832 5832 5832 5832 5831 5832 5832 5831 5831 5830 5830 5830 5829 5829 5829 5829 5829 5828 5829 5829 5829 5828 5828 5828 5828 5828 5828 5828 5828
5839 5837 5835 5834 5832 5831 5829 5828 5827 5827 5827 5826 5827 5827 5826 5826 5827 5826 5826 5826 5826 5826 5826 5825 5825 5824 5824 5824 5824 5823 5823 5823 5823 5823 5823 5823 5823 5823 5823 5822 5822 5822 5823
5833 5831 5829 5827 5826 5825 5823 5822 5822 5822 5821 5821 5821 5821 5821 5821 5821 5821 5821 5821 5821 5820 5820 5820 5819 5819 5818 5818 5818 5818 5817 5817 5817 5817 5817 5818 5818 5818 5817 5816 5816 5816 5816